This demonstration page uses our WeatherBlox Daily Observations layout. Learn more.

Left ArrowRight Arrow

Hourly Observations for December 25, 2019

Temp ( °F °C ) Dew Point ( °F °C ) Humidity (%) Winds ( mph kmh ) Pressure ( in mb ) Visibility ( mi km ) Precip ( " mm )
12:56 am 00:56 Partly Cloudy 45 7 36 2 71 71 ESE 6 9 29.70 1006 10 16 0.00 0.00
1:56 am 01:56 Partly Cloudy 46 8 36 2 66 66 ESE 8 13 29.70 1006 10 16 0.00 0.00
2:56 am 02:56 Partly Cloudy 45 7 36 2 71 71 ESE 6 9 29.71 1006 10 16 0.00 0.00
3:56 am 03:56 Partly Cloudy 45 7 36 2 71 71 SSE 7 11 29.70 1006 10 16 0.00 0.00
4:56 am 04:56 Partly Cloudy 45 7 36 2 71 71 SSE 3 6 29.71 1006 10 16 0.00 0.00
5:56 am 05:56 Partly Cloudy 45 7 34 1 66 66 SW 3 6 29.72 1006 10 16 0.00 0.00
6:56 am 06:56 Mostly Cloudy 43 6 34 1 71 71 WNW 7 11 29.73 1007 10 16 0.00 0.00
7:56 am 07:56 Cloudy 39 4 34 1 81 81 WNW 8 13 29.74 1007 10 16 0.00 0.00
8:56 am 08:56 Partly Cloudy 39 4 32 0 75 75 Calm 29.74 1007 10 16 0.00 0.00
9:56 am 09:56 Partly Cloudy 45 7 34 1 66 66 Calm 29.74 1007 10 16 0.00 0.00
10:56 am 10:56 Sunny 48 9 34 1 58 58 SSE 3 6 29.72 1006 10 16 0.00 0.00
11:56 am 11:56 Mostly Sunny 54 12 36 2 51 51 Calm 29.68 1005 10 16 0.00 0.00
12:56 pm 12:56 Sunny 55 13 36 2 47 47 Calm 29.65 1004 10 16 0.00 0.00
1:56 pm 13:56 Sunny 59 15 36 2 42 42 S 8 13 29.64 1004 10 16 0.00 0.00
2:56 pm 14:56 Partly Cloudy 57 14 37 3 48 48 SE 7 11 29.65 1004 10 16 0.00 0.00
3:56 pm 15:56 Partly Cloudy 50 10 36 2 58 58 NNW 8 13 29.67 1005 10 16 0.00 0.00
4:56 pm 16:56 Partly Cloudy 45 7 36 2 71 71 N 5 7 29.70 1006 10 16 0.00 0.00
5:56 pm 17:56 Mostly Clear 39 4 34 1 81 81 N 7 11 29.75 1008 10 16 0.00 0.00
6:56 pm 18:56 Clear 37 3 32 0 81 81 NW 6 9 29.79 1009 10 16 0.00 0.00
7:56 pm 19:56 Mostly Cloudy with Mist and Fog 36 2 32 0 87 87 NW 10 17 29.81 1010 5 8 0.00 0.00
8:56 pm 20:56 Cloudy with Mist and Fog 36 2 32 0 87 87 NNW 7 11 29.83 1010 5 8 0.00 0.00
9:56 pm 21:56 Cloudy with Mist and Fog 36 2 32 0 87 87 NW 8 13 29.83 1010 5 8 0.00 0.00
10:56 pm 22:56 Cloudy with Mist and Fog 34 1 30 -1 87 87 NW 10 17 29.86 1011 6 10 0.00 0.00
11:56 pm 23:56 Cloudy with Mist and Fog 34 1 30 -1 87 87 WNW 12 19 29.90 1012 6 10 0.00 0.00

Powered by AerisWeather